Regional Weather Roundup
Issued by NWS

Home | Current Version | Previous Version | Text Only | Print | Product List | Glossary Off
Versions: 1 2 3 4 5 6 7 8 9 10 11 12 13 14 15 16 17 18 19 20 21 22 23 24 25 26 27 28 29 30 31 32 33 34 35 36 37 38 39 40 41 42 43 44 45 46 47 48 49 50

514
ASUS43 KMPX 230701
RWRMN
WEATHER ROUNDUP FOR MINNESOTA
NATIONAL WEATHER SERVICE TWIN CITIES/CHANHASSEN MN
200 AM CDT SAT SEP 23 2017


NOTE: "FAIR" INDICATES FEW OR NO CLOUDS BELOW 12,000 FEET WITH NO
SIGNIFICANT WEATHER AND/OR OBSTRUCTIONS TO VISIBILITY. N/A MEANS
CURRENT SKY AND/OR WEATHER CONDITIONS ARE NOT AVAILABLE.

MNZ060>063-068>070-230800-
   Twin Cities Metro

CITY           SKY/WX    TMP DP  RH WIND       PRES   REMARKS
TWIN CITIES    CLOUDY    82  68  62 S14G22    29.86S
ST PAUL        CLOUDY    77  69  76 SE9       29.87S
CRYSTAL        CLOUDY    80  65  59 S15G24    29.84S
BLAINE         CLOUDY    82  66  57 S17       29.85S
LAKEVILLE      CLEAR     75  66  73 SW5       29.88R
EDEN PRAIRIE   CLOUDY    79  68  69 S13       29.85S
SOUTH ST PAUL  CLOUDY    79  66  65 S8        29.87S
LAKE ELMO      FAIR      77  68  73 S8        29.89R
$$
MNZ001>005-007-008-013>017-022>024-027-028-230800-
   Northwest Minnesota

CITY           SKY/WX    TMP DP  RH WIND       PRES   REMARKS
BEMIDJI        MOCLDY    66  63  90 W16       29.80R
HALLOCK          N/A     52  50  93 N17G23    29.83R
ROSEAU         CLOUDY    55  50  82 N8        29.77R
WARROAD        CLOUDY    57  54  88 NW8       29.75R
CROOKSTON      CLOUDY    55  52  88 N10       29.84R
FOSSTON        CLOUDY    55  54  94 W8        29.83R
DETROIT LAKES  CLOUDY    55  54  94 NW6       29.86R
MOORHEAD       CLOUDY    55  52  88 N7        29.87R
PARK RAPIDS    CLOUDY    69  64  84 W13       29.82R
MAHNOMEN       CLOUDY    55  54  94 W8        29.84R
$$
MNZ006-009>011-018-025>026-230800-
   North Central Minnesota

CITY           SKY/WX    TMP DP  RH WIND       PRES   REMARKS
BAUDETTE       CLOUDY    62  62 100 NW7       29.72R
FLAG ISLAND    CLOUDY    57  55  94 N10       29.73R
INTL FALLS     CLOUDY    67  64  90 CALM      29.72R
WASKISH        CLEAR     73  70  88 SW8       29.72S
BIG FORK       PTCLDY    75  68  78 SW9G17    29.76R
LONGVILLE      MOCLDY    75  64  69 SW7       29.79R
GRAND RAPIDS   CLOUDY    78  65  63 SW9G20    29.80R
CRANE LAKE     CLOUDY    75  70  83 CALM      29.78R
ORR            CLOUDY    72  66  83 S6        29.75R
COOK           CLOUDY    75  66  73 S8        29.78R
WALKER         FAIR      73  62  69 W8        29.79R
$$
MNZ012-019>021-037-230800-
   Northeast Minnesota

CITY           SKY/WX    TMP DP  RH WIND       PRES   REMARKS
DULUTH         CLOUDY    73  68  84 S13       29.82R
ELY            MOCLDY    73  64  73 S7        29.80R
HIBBING        CLOUDY    75  67  76 VRB5      29.79R
EVELETH        CLOUDY    73  64  74 S6        29.82R
DULUTH HARBOR  CLOUDY    63  61  94 CALM      29.81S
SILVER BAY     MOCLDY    61  61 100 CALM      29.80F
GRAND MARAIS     N/A     63  63 100 NE3       29.82R
$$
MNZ029>031-032-039>041-046>048-054>057-064-230800-
   West Central Minnesota

CITY           SKY/WX    TMP DP  RH WIND       PRES   REMARKS
FERGUS FALLS   CLOUDY    57  57 100 N10       29.82F
WHEATON        TSTM      57  54  88 W7        29.88R
MORRIS         MOCLDY    63  61  94 N6        29.82F
ALEXANDRIA     TSTM      66  62  87 NW10      29.86R
ELBOW LAKE     TSTM      58  58  99 NW8       29.83S
WADENA         TSTM      70  63  78 W9G28     29.84R
GLENWOOD       MOCLDY    68  63  83 NW13G21   29.86R THUNDER
APPLETON       MOCLDY    66  61  82 NW12      29.85R
BENSON         LGT RAIN  66  63  88 NE6       29.85R
ORTONVILLE     TSTM      59  55  88 N10       29.87R
MADISON        MOCLDY    70  70 100 NW9       29.85R
WILLMAR        FAIR      73  68  83 SE5       29.83S
$$
MNZ033>034-036-042>043-049>051-058-059-230800-
   Central Minnesota

CITY           SKY/WX    TMP DP  RH WIND       PRES   REMARKS
ST CLOUD       MOCLDY    73  68  84 E5        29.83F
SAUK CENTRE    PTSUNNY   69  66  90 S6        29.82R
PAYNESVILLE    CLOUDY    73  67  82 SE5       29.83S
AITKIN         LGT RAIN  73  63  68 SW8       29.80R
PINE RIVER     CLOUDY    72  59  64 SW5       29.83R
BRAINERD       TSTM      75  61  61 S14G39    29.81S
STAPLES        CLOUDY    70  61  73 W7        29.82R
LITTLE FALLS   MOCLDY    68  61  77 SE3       29.81F
LITCHFIELD     CLOUDY    79  70  73 CALM      29.84S
BUFFALO        CLEAR     78  66  68 S7        29.85S
MAPLE LAKE     CLEAR     77  70  79 S5        29.85S
HUTCHINSON     CLEAR     77  70  78 S7        29.85R
$$
MNZ037-044-045-052-053-230800-
   East Central Minnesota

CITY           SKY/WX    TMP DP  RH WIND       PRES   REMARKS
PRINCETON      MOCLDY    79  70  73 CALM      29.85R
MORA           CLOUDY    75  66  73 S7        29.87R
RUSH CITY      CLOUDY    77  67  72 S5        29.86R
MOOSE LAKE     CLOUDY    79  68  69 S13G22    29.81R
HINCKLEY       FAIR      79  70  73 S8        29.85R
CLOQUET        CLOUDY    79  64  61 S17G25    29.81R
MCGREGOR       MOCLDY    73  66  78 SW10G23   29.80R
$$
MNZ071>073-080-081-089-090-097-098-230800-
   Southwest Minnesota

CITY           SKY/WX    TMP DP  RH WIND       PRES   REMARKS
MONTEVIDEO     CLOUDY    72  72 100 N9        29.83R
GRANITE FALLS  PTCLDY    79  69  72 S12G18    29.83R
CANBY          CLOUDY    66  63  90 W6        29.87R
MARSHALL       PTCLDY    77  68  73 SW15      29.81R
REDWOOD FALLS  PTCLDY    78  67  68 S15       29.80F
OLIVIA         PTCLDY    77  66  69 S10G16    29.81S
PIPESTONE      PTCLDY    75  66  73 S12       29.86R
WORTHINGTON    PTCLDY    75  68  78 S14       29.88R
JACKSON        PTCLDY    73  66  78 S12G20    29.90S
TRACY          PTCLDY    77  69  75 S17G23    29.83S
SLAYTON        PTCLDY    76  62  62 S10G20    29.87S
$$
MNZ065>067-074>077-082>085-091>093-230800-
   South Central Minnesota

CITY           SKY/WX    TMP DP  RH WIND       PRES   REMARKS
NEW ULM        PTCLDY    77  66  69 S13G18    29.85S
ST JAMES       CLOUDY    75  66  73 S9        29.88R
FAIRMONT       CLOUDY    76  68  76 S13       29.89S
FARIBAULT      CLEAR     75  66  73 S10       29.90R
OWATONNA       CLEAR     75  66  73 S9        29.90S
WASECA         CLEAR     73  64  73 S9        29.91S
ALBERT LEA     CLEAR     81  68  65 S13G20    29.92R
$$
MNZ078>079-086>088-094>096-230800-
   Southeast Minnesota

CITY           SKY/WX    TMP DP  RH WIND       PRES   REMARKS
ROCHESTER      PTCLDY    75  66  73 S14       29.93S
RED WING       CLEAR     79  64  61 CALM      29.88R
STANTON        CLEAR     78  67  68 S8        29.87R
DODGE CENTER   PTCLDY    75  64  69 S13G21    29.92R
WINONA         CLEAR     77  64  65 S5        29.92S
AUSTIN         CLEAR     73  66  78 S10       29.93S
PRESTON        CLOUDY    73  64  75 SW14G21   29.95S
$$
ABBREVIATIONS USED IN REMARKS
   TC - TEMPERATURES IN CELSIUS
  WCI - WIND CHILL INDEX
   HX - HEAT INDEX
  VSB - VISIBILITY
$$




USA.gov is the U.S. government's official web portal to all federal, state and local government web resources and services.